FW5682 Weather Reports


time (UTC)temp
C
wind
direction
speed
KPH
gust
KPH
rain 1hr
cm
rain 24hr
cm
rain mn
cm
humidity
%
barometer
mb
20260504130741 15 207 4.8 11.3 0.00 0.08 0.05 75 1013.5
20260504130241 15 221 6.4 11.3 0.00 0.08 0.05 74 1013.4
20260504120239 13 162 3.2 11.3 0.00 0.10 0.05 75 1013.4
20260504110239 12 179 3.2 8.0 0.00 0.10 0.05 78 1013.6
20260504100504 12 134 3.2 14.5 0.03 0.13 0.05 83 1013.8
20260504081731 8 85 1.6 4.8 0.00 0.18 0.03 95 1013.6
20260504081230 8 85 1.6 6.4 0.00 0.20 0.03 95 1013.5
20260504080732 8 85 3.2 6.4 0.00 0.20 0.03 95 1013.5
20260504080450 8 85 3.2 6.4 0.00 0.20 0.03 95 1013.5
20260504070231 7 140 4.8 8.0 0.00 0.33 0.03 96 1013.1
20260504060231 7 20 6.4 9.7 0.00 0.41 0.03 96 1012.6
20260504050729 7 24 6.4 9.7 0.00 0.43 0.03 96 1012.4
20260504050229 7 23 6.4 9.7 0.00 0.46 0.03 96 1012.4
20260504045730 7 38 4.8 9.7 0.00 0.48 0.03 96 1012.4
20260504045229 7 32 4.8 11.3 0.00 0.51 0.03 96 1012.3
20260504044954 7 25 4.8 11.3 0.00 0.51 0.03 96 1012.3
20260504044228 7 0 4.8 11.3 0.00 0.53 0.03 96 1012.3
20260504043951 7 21 6.4 11.3 0.00 0.56 0.03 96 1012.3
20260504043227 7 18 6.4 11.3 0.00 0.56 0.03 96 1012.3
20260504042729 7 16 6.4 11.3 0.00 0.58 0.03 96 1012.3
20260504041728 7 28 4.8 11.3 0.00 0.61 0.03 96 1012.3
20260504041228 7 17 6.4 11.3 0.00 0.66 0.03 96 1012.2
20260504040728 7 39 6.4 9.7 0.00 0.69 0.03 96 1012.2
20260504040228 7 30 6.4 11.3 0.00 0.71 0.03 96 1012.2
20260504035728 7 25 6.4 11.3 0.00 0.74 0.03 96 1012.1
20260504035227 7 16 4.8 9.7 0.00 0.79 0.03 96 1012.1
20260504034728 7 14 8.0 9.7 0.00 0.79 0.03 96 1012.1
20260504034228 7 37 4.8 9.7 0.00 0.84 0.03 96 1012.0
20260504033727 7 31 8.0 9.7 0.00 0.86 0.03 96 1011.9
20260504033229 7 21 6.4 9.7 0.00 0.89 0.03 96 1012.0
20260504032727 7 28 6.4 11.3 0.00 0.89 0.03 96 1011.9
20260504032227 7 37 6.4 11.3 0.00 0.94 0.03 96 1011.9
20260504031727 7 39 4.8 9.7 0.00 0.99 0.03 96 1012.0
20260504031226 7 17 6.4 9.7 0.00 0.99 0.03 96 1012.1
20260504030726 7 16 4.8 9.7 0.00 1.02 0.03 96 1012.0
20260504030226 7 8 6.4 14.5 0.00 1.04 0.03 96 1012.0
20260504025226 7 32 6.4 11.3 0.00 1.07 0.03 96 1011.8
20260504024726 7 27 8.0 11.3 0.00 1.09 0.03 96 1011.9
20260504024227 7 41 6.4 9.7 0.00 1.09 0.03 96 1011.8
20260504022726 7 44 4.8 16.1 0.00 1.24 0.03 96 1011.9
20260504022454 7 8 9.7 16.1 0.03 1.30 0.03 96 1011.8
20260504021726 7 23 6.4 14.5 0.03 1.37 0.03 96 1011.8
20260504021225 7 27 6.4 16.1 0.03 1.37 0.03 96 1011.9
20260504020725 7 18 6.4 16.1 0.03 1.40 0.03 96 1011.8
20260504020225 7 6 6.4 16.1 0.03 1.42 0.03 96 1011.8
20260504015945 7 0 6.4 14.5 0.03 1.45 0.03 96 1011.8
20260504015224 7 0 8.0 14.5 0.03 1.45 0.03 96 1011.8
20260504014731 7 0 6.4 16.1 0.03 1.45 0.03 96 1011.7
20260504013725 7 28 6.4 14.5 0.03 1.47 0.03 96 1011.8
20260504013224 7 27 6.4 11.3 0.03 1.47 0.03 96 1011.7
20260504012724 7 13 6.4 11.3 0.03 1.47 0.03 96 1011.7
20260504012225 7 17 6.4 14.5 0.00 1.47 0.00 96 1011.8
20260504011724 7 13 6.4 14.5 0.00 1.47 0.00 96 1011.7
20260504011223 7 25 4.8 14.5 0.00 1.47 0.00 96 1011.6
20260504010724 7 21 8.0 14.5 0.00 1.50 0.00 96 1011.6
20260504010224 7 28 8.0 11.3 0.00 1.50 0.00 96 1011.6
20260504005723 7 10 6.4 11.3 0.00 1.52 0.00 96 1011.7
20260504005448 7 18 8.0 14.5 0.00 1.52 0.00 96 1011.6
20260504004724 7 24 6.4 14.5 0.00 1.52 0.00 96 1011.5
20260504004223 7 28 6.4 16.1 0.00 1.52 0.00 96 1011.5
20260504003723 7 23 6.4 16.1 0.00 1.55 0.00 96 1011.4
20260504003223 7 18 8.0 17.7 0.00 1.55 0.00 96 1011.5
20260504002723 7 37 8.0 17.7 0.00 1.55 0.00 96 1011.4
20260504002222 7 27 6.4 17.7 0.00 1.55 0.00 96 1011.4
20260504001722 7 49 9.7 17.7 0.00 1.55 0.00 96 1011.4
20260504001441 7 32 9.7 17.7 0.00 1.55 0.00 96 1011.4
20260504000722 7 28 9.7 17.7 0.00 1.55 0.00 96 1011.4
20260504000222 7 31 8.0 16.1 0.00 1.55 0.00 96 1011.4
20260503235722 7 23 6.4 17.7 0.00 1.57 0.00 96 1011.5
20260503235222 7 38 9.7 17.7 0.00 1.57 0.00 96 1011.4
20260503234722 7 25 9.7 16.1 0.00 1.57 0.00 96 1011.4
20260503234441 7 47 9.7 19.3 0.00 1.57 0.00 96 1011.3
20260503233721 7 42 9.7 19.3 0.00 1.57 0.00 96 1011.4
20260503233221 7 42 8.0 16.1 0.00 1.60 0.00 96 1011.4
20260503232721 7 27 9.7 16.1 0.00 1.60 0.00 96 1011.3
20260503232222 7 28 9.7 16.1 0.00 1.60 0.00 96 1011.3
20260503231720 7 13 8.0 14.5 0.00 1.60 0.00 96 1011.3
20260503231447 7 34 6.4 19.3 0.00 1.60 0.00 96 1011.3
20260503230720 7 37 11.3 19.3 0.00 1.63 0.00 96 1011.3
20260503230220 7 30 11.3 19.3 0.00 1.63 0.00 96 1011.3
20260503225720 7 41 9.7 19.3 0.00 1.65 1.65 96 1011.3
20260503225221 7 28 6.4 20.9 0.00 1.65 1.65 96 1011.2
20260503224720 7 1 6.4 20.9 0.00 1.68 1.65 96 1011.2
20260503224220 7 30 11.3 19.3 0.00 1.68 1.65 96 1011.1
20260503223720 7 45 9.7 19.3 0.00 1.73 1.65 96 1011.1
20260503223219 7 0 6.4 19.3 0.00 1.75 1.65 96 1011.1
20260503222720 7 37 12.9 19.3 0.00 1.78 1.65 96 1011.1
20260503222220 7 353 9.7 17.7 0.00 1.80 1.65 96 1011.1
20260503221720 7 0 9.7 19.3 0.00 1.83 1.65 96 1011.0
20260503221220 7 37 11.3 19.3 0.00 1.83 1.65 96 1011.1
20260503220719 7 14 9.7 19.3 0.00 1.83 1.65 96 1011.1
20260503220219 7 41 11.3 17.7 0.00 1.83 1.65 96 1011.0
20260503215719 7 331 6.4 16.1 0.00 1.85 1.65 96 1010.9
20260503215219 7 23 4.8 14.5 0.00 1.85 1.65 96 1010.9
20260503214938 7 45 9.7 17.7 0.00 1.88 1.65 96 1011.0
20260503214219 8 21 11.3 17.7 0.00 1.88 1.65 96 1010.9
20260503213718 8 21 9.7 20.9 0.00 1.91 1.65 96 1010.8
20260503213219 8 8 11.3 20.9 0.00 1.93 1.65 96 1010.8
20260503212719 8 30 11.3 19.3 0.00 1.93 1.65 96 1010.8
20260503212218 8 16 11.3 20.9 0.00 1.96 1.65 96 1010.8
20260503211718 8 23 12.9 20.9 0.00 1.96 1.65 96 1010.8
20260503211218 8 16 9.7 17.7 0.00 1.98 1.65 96 1010.7
20260503210717 8 18 8.0 19.3 0.00 1.98 1.65 96 1010.7
20260503210439 8 8 9.7 19.3 0.00 1.98 1.65 96 1010.8
20260503205717 8 35 9.7 19.3 0.00 1.98 1.65 96 1010.6
20260503205443 8 27 11.3 20.9 0.00 1.98 1.65 96 1010.6
20260503204717 8 0 9.7 20.9 0.00 1.98 1.65 96 1010.6
20260503204217 8 31 12.9 19.3 0.00 1.98 1.65 96 1010.6
20260503203717 8 0 12.9 19.3 0.00 1.98 1.65 96 1010.5
20260503203215 8 61 9.7 22.5 0.00 1.98 1.65 96 1010.4
20260503202715 8 23 14.5 22.5 0.00 1.98 1.65 96 1010.4
20260503202216 8 31 9.7 17.7 0.00 1.98 1.65 96 1010.3
20260503201713 8 31 8.0 19.3 0.00 1.98 1.65 96 1010.3
20260503201213 8 28 11.3 22.5 0.00 1.98 1.65 96 1010.2
20260503200711 8 8 9.7 25.7 0.00 1.98 1.65 96 1010.0
20260503200432 8 0 14.5 25.7 0.00 1.98 1.65 96 1010.0
20260503195713 8 13 14.5 22.5 0.00 1.98 1.65 96 1010.0
20260503195211 8 27 8.0 20.9 0.00 1.98 1.65 96 1010.0
20260503194929 8 18 9.7 22.5 0.00 1.98 1.65 95 1009.8
20260503194211 8 27 12.9 22.5 0.00 1.98 1.65 95 1009.8
20260503193935 8 30 11.3 22.5 0.00 1.98 1.65 96 1009.8
20260503193209 8 32 14.5 20.9 0.00 1.98 1.65 96 1009.7
20260503192706 8 25 11.3 24.1 0.00 1.98 1.65 96 1009.7
20260503192427 8 23 14.5 24.1 0.00 1.98 1.65 96 1009.6
20260503191708 8 13 12.9 20.9 0.00 1.98 1.65 96 1009.6
20260503191205 8 0 11.3 20.9 0.00 1.98 1.65 96 1009.5
20260503190705 8 25 8.0 19.3 0.00 1.98 1.65 96 1009.5
20260503190205 8 31 9.7 20.9 0.00 1.98 1.65 96 1009.4
20260503185702 8 351 12.9 20.9 0.00 1.98 1.65 96 1009.4
20260503185203 8 17 6.4 19.3 0.00 1.98 1.65 96 1009.4
20260503184702 8 6 11.3 22.5 0.00 1.98 1.65 96 1009.3
20260503184203 8 6 9.7 22.5 0.00 1.98 1.65 96 1009.3
20260503183703 8 10 12.9 24.1 0.00 1.98 1.65 96 1009.2
20260503183202 8 0 8.0 24.1 0.00 1.98 1.65 96 1009.1
20260503182703 8 6 9.7 19.3 0.00 1.98 1.65 96 1009.1
20260503182202 8 18 9.7 20.9 0.00 1.98 1.65 96 1009.0
20260503181702 8 51 11.3 20.9 0.00 1.98 1.65 95 1009.0
20260503181203 8 348 12.9 20.9 0.00 1.98 1.65 95 1009.0
20260503180704 8 28 11.3 20.9 0.00 1.98 1.65 96 1008.9
20260503180203 8 10 8.0 19.3 0.00 1.98 1.65 96 1008.9
20260503175700 8 34 11.3 24.1 0.00 1.98 1.65 96 1008.7
20260503175200 8 348 9.7 24.1 0.00 1.98 1.65 96 1008.8
20260503174700 9 13 12.9 20.9 0.00 1.98 1.65 96 1008.6
20260503174153 9 355 9.7 20.9 0.00 1.98 1.65 96 1008.8
20260503173653 9 8 12.9 25.7 0.00 1.98 1.65 96 1008.7
20260503173154 9 23 14.5 25.7 0.00 1.98 1.65 96 1008.7
20260503172650 9 0 11.3 19.3 0.00 1.98 1.65 96 1008.6
20260503172151 9 1 9.7 22.5 0.00 1.98 1.65 95 1008.6
20260503171651 9 0 16.1 22.5 0.00 1.98 1.65 96 1008.6
20260503171151 9 18 11.3 22.5 0.00 1.98 1.65 96 1008.5
20260503170650 9 16 9.7 22.5 0.00 1.98 1.65 95 1008.5
20260503170150 9 21 8.0 22.5 0.00 1.98 1.65 95 1008.5
20260503160146 9 0 11.3 22.5 0.00 1.98 1.65 95 1008.3
20260503150638 10 1 9.7 20.9 0.03 1.98 1.65 96 1008.1
20260503150138 10 27 9.7 20.9 0.03 1.98 1.65 95 1008.1
20260503140131 10 35 9.7 19.3 0.03 1.96 1.63 96 1008.1